Regional Weather Roundup
Issued by NWS Goodland, KS

Home | Current Version | Previous Version | Graphics & Text | Print | Product List | Glossary On
Versions: 1 2 3 4 5 6 7 8 9 10 11 12 13 14 15 16 17 18 19 20 21 22 23 24 25 26 27 28 29 30 31 32 33 34 35 36 37 38 39 40 41 42 43 44 45 46 47 48 49 50
000
ASUS43 KGLD 230508
RWRGLD

GOODLAND FORECAST AREA HOURLY WEATHER ROUNDUP
NATIONAL WEATHER SERVICE GOODLAND KS
1100 PM MDT FRI MAY 22 2015

...OFFICIAL OBSERVATIONS...

CITY           SKY/WX    TMP DP  RH WIND       PRES   REMARKS
GOODLAND KS    FOG       53  53 100 SE20G28   30.04R VSB 1/2
HILL CITY KS   CLOUDY    55  53  93 S13       30.11S
IMPERIAL NEB   CLOUDY    50  49  96 SE13      30.06F FOG
MCCOOK NEB     CLOUDY    52  52 100 SE10      30.08S FOG
AKRON CO       FOG       50  50 100 E10       30.04S VSB 1/4
BURLINGTON CO  CLOUDY    53  52  96 SE25G35   30.00R FOG
LIMON CO       PTCLDY    49  47  93 NE13      30.02R
$$

...UNOFFICIAL OBSERVATIONS...

CITY           SKY/WX    TMP DP  RH WIND       PRES   REMARKS
GOVE KS          N/A     56  32  40 MISG        N/A
LENORA KS        N/A     53  32  45 MISG        N/A
SHARON SPRINGS   N/A     55  53  95 MISG        N/A
TRENTON NEB      N/A     52  32  46 SE14        N/A
KIT CARSON CO    N/A     55  52  90 MISG        N/A
YUMA CO          N/A     54  54 100 E10         N/A
$$



USA.gov is the U.S. government's official web portal to all federal, state and local government web resources and services.